Погода в Усть-Борзе

Россия / Забайкальский край     50°36′07″N   115°40′38″E
темп.,
°C
ветер,
м/с
пор.,
м/с
влажн.,
%
обл.,
%
осадки,
мм/ч
давл.,
гПа
погр.,
м
20 января, чт
чт2000:00−27в22975 0.0 103910
03:00−27в11975 0.0 10399
06:00−27в119844 0.0 10399
09:00−27в1198100 0.0 10399
12:00−21вюв1192100 0.0 1038105
15:00−19юв2288100 0.0 1036201
18:00−20вюв1196100 0.0 103610
21:00−19в1199100 0.6 103728
21 января, пт
пт2100:00−19вюв119995 0.6 103723
03:00−20св1110089 0.7 10379
06:00−22ссв1110076 0.1 10389
09:00−23ссв11100100 0.1 103910
12:00−19ссз1294100 0.0 1038119
15:00−17ссз228999 0.1 1035234
18:00−19ссз1197100 0.0 10369
21:00−21ссз1110096 0.1 10369
22 января, сб
сб2200:00−21ссз1110077 0.1 103711
03:00−24с1110079 0.1 10389
06:00−26с2210078 0.0 103810
09:00−27с2210085 0.0 103910
12:00−20с229645 0.0 103898
15:00−17ссз23895 0.0 1036169
18:00−22ссв111005 0.0 10389
21:00−24всв1110030 0.0 10399
23 января, вс
вс2300:00−25в1110048 0.0 10409
03:00−25в1110085 0.0 10409
06:00−23в1199100 0.0 103910
09:00−23в1198100 0.0 103810
12:00−18вюв0091100 0.0 1037107
15:00−16ссв1187100 0.0 1035169
18:00−18ссв1195100 0.0 10359
21:00−20с1199100 0.0 10369
24 января, пн
пн2400:00−20ссв1199100 0.0 10369
03:00−20с1199100 0.0 103510
06:00−20с2297100 0.0 103433
09:00−20с2297100 0.0 103432
12:00−17с2387100 0.0 1034145
15:00−15ссз2383100 0.0 1032227
18:00−19с229676 0.0 103310
21:00−22с229974 0.0 103411